TimeMDT,TemperatureF,Dew PointF,Humidity,Sea Level PressureIn,VisibilityMPH,Wind Direction,Wind SpeedMPH,Gust SpeedMPH,PrecipitationIn,Events,Conditions,WindDirDegrees,DateUTC
12:52 AM,44.1,25.0,47,29.92,10.0,East,10.4,-,N/A,,Clear,100,2013-10-02 06:52:00
1:52 AM,43.0,24.1,47,29.92,10.0,East,5.8,-,N/A,,Clear,100,2013-10-02 07:52:00
2:52 AM,37.0,25.0,62,29.94,10.0,NNE,5.8,-,N/A,,Clear,30,2013-10-02 08:52:00
3:52 AM,37.0,27.0,67,29.94,10.0,NNW,5.8,-,N/A,,Clear,340,2013-10-02 09:52:00
4:52 AM,36.0,28.0,73,29.95,10.0,NNE,9.2,-,N/A,,Clear,20,2013-10-02 10:52:00
5:52 AM,33.1,26.1,75,29.99,10.0,West,5.8,-,N/A,,Clear,270,2013-10-02 11:52:00
6:52 AM,30.0,25.0,82,30.05,10.0,Calm,Calm,-,N/A,,Clear,0,2013-10-02 12:52:00
7:52 AM,39.0,27.0,62,30.06,10.0,Calm,Calm,-,N/A,,Clear,0,2013-10-02 13:52:00
8:52 AM,48.0,28.9,48,30.04,10.0,Calm,Calm,-,N/A,,Clear,0,2013-10-02 14:52:00
9:52 AM,55.0,26.1,33,30.04,10.0,Variable,3.5,-,N/A,,Clear,0,2013-10-02 15:52:00
10:52 AM,57.0,26.1,30,30.02,10.0,Calm,Calm,-,N/A,,Clear,0,2013-10-02 16:52:00
11:52 AM,62.1,24.1,23,29.97,10.0,ESE,5.8,-,N/A,,Clear,110,2013-10-02 17:52:00
12:52 PM,64.9,18.0,16,29.94,10.0,SE,5.8,-,N/A,,Clear,140,2013-10-02 18:52:00
1:52 PM,66.9,15.1,14,29.90,10.0,Calm,Calm,-,N/A,,Clear,0,2013-10-02 19:52:00
2:52 PM,70.0,17.1,13,29.87,10.0,Variable,6.9,-,N/A,,Clear,0,2013-10-02 20:52:00
3:52 PM,72.0,16.0,12,29.83,10.0,Variable,4.6,-,N/A,,Clear,0,2013-10-02 21:52:00
4:52 PM,73.0,14.0,11,29.81,10.0,WSW,6.9,-,N/A,,Clear,250,2013-10-02 22:52:00
5:52 PM,68.0,10.0,11,29.85,10.0,SW,15.0,21.9,N/A,,Clear,220,2013-10-02 23:52:00
6:52 PM,57.0,19.9,24,29.93,10.0,South,10.4,-,N/A,,Clear,190,2013-10-03 00:52:00
7:52 PM,53.1,19.9,27,29.93,10.0,SSW,11.5,-,N/A,,Clear,210,2013-10-03 01:52:00
8:52 PM,52.0,19.0,27,29.91,10.0,SSW,16.1,-,N/A,,Clear,200,2013-10-03 02:52:00
9:52 PM,48.9,19.9,32,29.91,10.0,South,10.4,-,N/A,,Clear,180,2013-10-03 03:52:00
10:52 PM,46.0,21.9,39,29.91,10.0,SSW,8.1,-,N/A,,Clear,200,2013-10-03 04:52:00
11:52 PM,41.0,21.9,47,29.90,10.0,South,6.9,-,N/A,,Clear,180,2013-10-03 05:52:00